User: anonymous   Login
Location: Oshawa
(43.9000°N, 78.8670°W)
Time: 00:19:07
(UTC-05:00)
Language:

Explorer 7 - Orbit

View from above orbital plane
View from above orbital plane
View from above satellite
View from above satellite

Ground track
Ground track

The orbit data is extracted from the following two-line orbital elements,

1 00022U 59009A   14329.13223909  .00005072  00000-0  43789-3 0   893
2 00022 050.2839 254.6925 0152198 072.9346 288.8209 14.90338741921642
Epoch (UTC): 25 November 2014 03:10:25
Eccentricity: 0.0152198
inclination: 50.2839°
perigee height: 491 km
apogee height: 703 km
right ascension of ascending node: 254.6925°
argument of perigee: 72.9346°
revolutions per day: 14.90338741
mean anomaly at epoch: 288.8209°
orbit number at epoch: 92164

The dashed part of the orbit path shows where the satellite is in the earth's shadow,  

DLR